This is the latest recevied weather packets stored in our database for station/object N9GKE-1. If no packets are shown the sender has not sent any weather packets the latest 10 day(s).
| Time | Temp. | Humidity | Pressure | Rain* | Wind** | Luminosity | Snow |
|---|---|---|---|---|---|---|---|
| 1777955576 | 15° C | 84% | 1005.3 hPa | 0 mm | - | - | - |
| 1777955350 | 15.56° C | 83% | 1005.2 hPa | 0 mm | - | - | - |
| 1777954978 | 16.67° C | 77% | 1004.3 hPa | 0 mm | - | - | - |
| 1777954748 | 17.22° C | 73% | 1004.1 hPa | 0 mm | - | - | - |
| 1777954378 | 17.78° C | 67% | 1004.1 hPa | 0 mm | - | - | - |
| 1777954149 | 18.33° C | 66% | 1003.4 hPa | 0 mm | - | - | - |
| 1777953777 | 19.44° C | 61% | 1003.5 hPa | 0 mm | - | - | - |
| 1777953550 | 19.44° C | 60% | 1003.2 hPa | 0 mm | - | - | - |
| 1777953178 | 20.56° C | 55% | 1003.1 hPa | 0 mm | - | - | - |
| 1777952948 | 20.56° C | 54% | 1003 hPa | 0 mm | - | - | - |
| 1777952577 | 21.11° C | 53% | 1002.2 hPa | 0 mm | - | - | - |
| 1777952349 | 21.11° C | 52% | 1001.9 hPa | 0 mm | - | - | - |
| 1777951978 | 21.11° C | 51% | 1001.6 hPa | 0 mm | - | - | - |
| 1777951748 | 21.11° C | 51% | 1001.4 hPa | 0 mm | - | - | - |
| 1777951376 | 21.11° C | 51% | 1001.4 hPa | 0 mm | - | - | - |
| 1777951149 | 21.11° C | 51% | 1001.4 hPa | 0 mm | - | - | - |
| 1777950776 | 21.11° C | 51% | 1001.4 hPa | 0 mm | - | - | - |
| 1777950549 | 21.11° C | 51% | 1001.4 hPa | 0 mm | - | - | - |
| 1777950178 | 21.11° C | 51% | 1001.7 hPa | 0 mm | - | - | - |
| 1777949950 | 21.11° C | 51% | 1001.7 hPa | 0 mm | - | - | - |
| 1777949577 | 21.11° C | 51% | 1001.7 hPa | 0 mm | - | - | - |
| 1777949348 | 21.11° C | 51% | 1001.7 hPa | 0 mm | - | - | - |
| 1777948976 | 21.11° C | 51% | 1001.7 hPa | 0 mm | - | - | - |
| 1777948749 | 21.11° C | 51% | 1001.6 hPa | 0 mm | - | - | - |
| 1777948378 | 21.11° C | 51% | 1001.7 hPa | 0 mm | - | - | - |
* Rain latest hour (hover to see other rain measurements)
** Current wind speed in m/s (hover to see current wind gust speed)